sat.trackr.live / text

‹ back to catalog

ONEWEB-0621

NORAD 55162 · 2023-004Y

PAYLOAD ACTIVE UNKNOWN

§ Identity

Operator
Country
UK
Launch date
2023-01-10
Launch site
AFETR
Launch vehicle
Mass (kg)
RCS (m²)

Purposes: comms

External: N2YO · Heavens-Above · Gunter

§ Orbital elements

Epoch: 2026-09-19T05:44:32.133120Z

Period
109.80 min
Inclination
87.8971°
Eccentricity
0.0001980
Mean motion
13.11418146 rev/d
Perigee alt
1,216.2 km
Apogee alt
1,219.2 km
Semi-major
7,595.8 km
B*
-1.1647e-3
RAAN
2.3737°
Arg perigee
106.8342°
Mean anomaly
253.3003°
Rev number
17,813

§ Raw data

ONEWEB-06211 55162U 23004Y   26262.23926080 -.00000400  00000+0 -11647-2 0  99922 55162  87.8971   2.3737 0001980 106.8342 253.3003 13.11418146178131

JSON: /api/v1/satellites/55162 · /tle

For live sub-satellite position, see the globe view (requires WebGL).

§ Visibility from observer

Set your observer location to see the next 7 days of passes ≥ 10°. The values pass through the URL so the page stays shareable.

No JS? Fill the form by hand. The geolocation button needs JavaScript.